Foy’s Top 50 HR Hitters Revision History

Revision History

Revision # Revision Time ATF Rank Rating GPA with Top Pop Bonuses % Complete Registered Items Optional Items Checklist Required Items Notes
Today 89 1.920 7.385 26.00% 13 50
8/4/2022 8:15:05 PM 89 1.920 7.385 26.00% 13 50 Composite updated.
8/4/2022 8:13:54 PM 90 1.920 7.385 26.00% 13 50 Other set published.
8/4/2022 8:13:54 PM 90 1.920 7.385 26.00% 13 50 Other set published.
8/3/2022 9:59:29 PM 89 1.920 7.385 26.00% 13 50 OTHER SET PUBLISHED: CCSS Collection
8/3/2022 9:59:28 PM 89 1.920 7.385 26.00% 13 50 OTHER SET PUBLISHED: CCSS Collection
7/15/2022 8:41:53 AM 90 1.920 7.385 26.00% 13 50 OTHER SET PUBLISHED: Kirby333
7/15/2022 8:41:51 AM 90 1.920 7.385 26.00% 13 50 OTHER SET PUBLISHED: Kirby333
6/13/2022 1:12:14 PM 89 1.920 7.385 26.00% 13 50 OTHER SET PUBLISHED: CCSS Collection
6/13/2022 1:12:13 PM 89 1.920 7.385 26.00% 13 50 OTHER SET PUBLISHED: CCSS Collection
6/6/2022 6:20:35 PM 88 1.920 7.385 26.00% 13 50 OTHER SET PUBLISHED: nutsonchin
6/6/2022 6:20:28 PM 88 1.920 7.385 26.00% 13 50 OTHER SET PUBLISHED: nutsonchin
6/4/2022 8:51:22 AM 87 1.920 7.385 26.00% 13 50 Other set un-published.
6/4/2022 8:51:20 AM 87 1.920 7.385 26.00% 13 50 Other set un-published.
6/1/2022 4:32:34 PM 88 1.920 7.385 26.00% 13 50 OTHER SET PUBLISHED: Peltz22 Collection
5/15/2022 11:31:58 AM 87 1.920 7.385 26.00% 13 50 OTHER SET PUBLISHED: Joe Hoysock
5/15/2022 11:31:58 AM 87 1.920 7.385 26.00% 13 50 OTHER SET PUBLISHED: Joe Hoysock
5/5/2022 1:44:31 PM 86 1.920 7.385 26.00% 13 50 OTHER SET PUBLISHED: Maverick
5/1/2022 5:08:28 PM 85 1.920 7.385 26.00% 13 50 Other set un-published.
5/1/2022 5:08:27 PM 85 1.920 7.385 26.00% 13 50 Other set un-published.
5/1/2022 6:38:44 AM 86 1.920 7.385 26.00% 13 50 OTHER SET PUBLISHED: CCSS Collection
5/1/2022 6:38:41 AM 86 1.920 7.385 26.00% 13 50 OTHER SET PUBLISHED: CCSS Collection
4/26/2022 4:39:29 PM 87 1.920 7.385 26.00% 13 50 OTHER SET PUBLISHED: Byrack's All-Time HR Hitter Showcase
4/26/2022 4:39:02 PM 87 1.920 7.385 26.00% 13 50 OTHER SET PUBLISHED: Byrack's All-Time HR Hitter Showcase
4/25/2022 9:24:35 AM 86 1.920 7.385 26.00% 13 50 OTHER SET PUBLISHED: broncomet
4/25/2022 9:24:28 AM 86 1.920 7.385 26.00% 13 50 OTHER SET PUBLISHED: broncomet
4/23/2022 6:38:28 PM 85 1.920 7.385 26.00% 13 50 OTHER SET PUBLISHED: nickman90
4/23/2022 6:38:24 PM 85 1.920 7.385 26.00% 13 50 OTHER SET PUBLISHED: nickman90
4/22/2022 6:56:03 PM 84 1.920 7.385 26.00% 13 50 Other set published.
13 4/12/2022 8:58:55 AM 83 1.920 7.385 26.00% 13 50 Set published.
1 item added.
Tie breaker revision.
3/18/2022 1:24:45 AM 87T 1.840 7.667 24.00% 12 50 OTHER SET PUBLISHED: SOK Collection
3/11/2022 8:37:00 PM 86T 1.840 7.667 24.00% 12 50 Other set un-published.
3/11/2022 8:36:58 PM 86T 1.840 7.667 24.00% 12 50 Other set un-published.
2/6/2022 12:47:33 AM 87T 1.840 7.667 24.00% 12 50 Composite updated.
2/5/2022 4:00:10 PM 88T 1.840 7.667 24.00% 12 50 Other set published.
2/3/2022 12:42:31 PM 87T 1.840 7.667 24.00% 12 50 OTHER SET PUBLISHED: Hahn's MLB Sluggers
2/3/2022 12:42:29 PM 87T 1.840 7.667 24.00% 12 50 OTHER SET PUBLISHED: Hahn's MLB Sluggers
1/29/2022 6:03:31 AM 86T 1.840 7.667 24.00% 12 50 Other set published.
1/29/2022 6:03:27 AM 86T 1.840 7.667 24.00% 12 50 Other set published.
1/4/2022 8:19:22 PM 85T 1.840 7.667 24.00% 12 50 Composite updated.
1/4/2022 7:57:28 PM 86T 1.840 7.667 24.00% 12 50 Other set published.
12/28/2021 3:33:59 AM 85T 1.840 7.667 24.00% 12 50 OTHER SET PUBLISHED: Warning Track Power
12/28/2021 3:33:58 AM 84T 1.840 7.667 24.00% 12 50 OTHER SET PUBLISHED: rficchi
12/28/2021 3:33:57 AM 83T 1.840 7.667 24.00% 12 50 OTHER SET PUBLISHED: StevenBelanger
12/28/2021 3:33:56 AM 82T 1.840 7.667 24.00% 12 50 OTHER SET PUBLISHED: julian_barajas
12/28/2021 3:33:55 AM 81T 1.840 7.667 24.00% 12 50 OTHER SET PUBLISHED: RAYFROMPHILLY
12/28/2021 3:33:53 AM 80T 1.840 7.667 24.00% 12 50 OTHER SET PUBLISHED: John's top 50 HR hitters
12/28/2021 3:33:52 AM 79T 1.840 7.667 24.00% 12 50 OTHER SET PUBLISHED: DSosa1983
12/28/2021 3:33:52 AM 78T 1.840 7.667 24.00% 12 50 OTHER SET PUBLISHED: The PDA Collection
12/28/2021 3:33:52 AM 77T 1.840 7.667 24.00% 12 50 OTHER SET PUBLISHED: jgf717
12/28/2021 3:33:51 AM 76T 1.840 7.667 24.00% 12 50 OTHER SET PUBLISHED: b_winter99 (3)
12/28/2021 3:33:51 AM 75T 1.840 7.667 24.00% 12 50 OTHER SET PUBLISHED: BG_Card_Collection
12/28/2021 3:33:50 AM 74T 1.840 7.667 24.00% 12 50 OTHER SET PUBLISHED: xlite88
12/28/2021 3:33:50 AM 74T 1.840 7.667 24.00% 12 50 OTHER SET PUBLISHED: CCSS Collection
12/28/2021 3:33:50 AM 73T 1.840 7.667 24.00% 12 50 OTHER SET PUBLISHED: BigMike1979
12/28/2021 3:33:49 AM 72T 1.840 7.667 24.00% 12 50 OTHER SET PUBLISHED: bigtutt23
12/28/2021 3:33:49 AM 71T 1.840 7.667 24.00% 12 50 OTHER SET PUBLISHED: Chrisdaugherty0
12/28/2021 3:33:47 AM 70T 1.840 7.667 24.00% 12 50 OTHER SET PUBLISHED: b_winter99
12/28/2021 3:33:47 AM 69T 1.840 7.667 24.00% 12 50 OTHER SET PUBLISHED: mcmoynihan
12/28/2021 3:33:47 AM 68T 1.840 7.667 24.00% 12 50 OTHER SET PUBLISHED: guttapercha
12/28/2021 3:33:46 AM 67T 1.840 7.667 24.00% 12 50 OTHER SET PUBLISHED: sarcam71
12/28/2021 3:33:45 AM 66T 1.840 7.667 24.00% 12 50 OTHER SET PUBLISHED: rmeisch
12/28/2021 3:33:44 AM 65T 1.840 7.667 24.00% 12 50 OTHER SET PUBLISHED: mcholke MLB 50 All Time Home Run Hitters
12/28/2021 3:33:42 AM 64T 1.840 7.667 24.00% 12 50 OTHER SET PUBLISHED: brassmunkey2
12/28/2021 3:33:42 AM 63T 1.840 7.667 24.00% 12 50 OTHER SET PUBLISHED: gmunay
12/28/2021 3:33:41 AM 62T 1.840 7.667 24.00% 12 50 OTHER SET PUBLISHED: johnprevite
12/28/2021 3:33:40 AM 61T 1.840 7.667 24.00% 12 50 OTHER SET PUBLISHED: magellangatsby
12/28/2021 3:33:37 AM 60T 1.840 7.667 24.00% 12 50 OTHER SET PUBLISHED: Mansco
12/28/2021 3:33:37 AM 59T 1.840 7.667 24.00% 12 50 OTHER SET PUBLISHED: Doughboys
12/28/2021 3:33:36 AM 58T 1.840 7.667 24.00% 12 50 Other set published.
12/28/2021 3:33:35 AM 57T 1.840 7.667 24.00% 12 50 OTHER SET PUBLISHED: Andy's Top 50 All-Time HR Hitters Collection
12/28/2021 3:33:35 AM 56T 1.840 7.667 24.00% 12 50 OTHER SET PUBLISHED: PNorth (2)
12/28/2021 3:33:34 AM 55T 1.840 7.667 24.00% 12 50 OTHER SET PUBLISHED: losangelesyaf
12/28/2021 3:33:34 AM 54T 1.840 7.667 24.00% 12 50 OTHER SET PUBLISHED: MDR Top 50 HR Hitters
12/28/2021 3:33:33 AM 53T 1.840 7.667 24.00% 12 50 OTHER SET PUBLISHED: GP's MLB Top 50 All-Time Home Run Hitters
12/28/2021 3:33:28 AM 52T 1.840 7.667 24.00% 12 50 OTHER SET PUBLISHED: Ryanex23
12/28/2021 3:33:28 AM 51T 1.840 7.667 24.00% 12 50 OTHER SET PUBLISHED: Sorrels
12/28/2021 3:33:25 AM 50T 1.840 7.667 24.00% 12 50 OTHER SET PUBLISHED: falizzadro
12/28/2021 3:33:24 AM 49T 1.840 7.667 24.00% 12 50 OTHER SET PUBLISHED: Chris Bourne
12/28/2021 3:33:24 AM 48T 1.840 7.667 24.00% 12 50 OTHER SET PUBLISHED: rosie's 50 All-Time HR Hitters
12/28/2021 3:33:24 AM 47T 1.840 7.667 24.00% 12 50 OTHER SET PUBLISHED: All or nothing
12/28/2021 3:33:23 AM 46T 1.840 7.667 24.00% 12 50 OTHER SET PUBLISHED: rplno1
12/28/2021 3:33:22 AM 45T 1.840 7.667 24.00% 12 50 OTHER SET PUBLISHED: boberobinson
12/28/2021 3:33:21 AM 44T 1.840 7.667 24.00% 12 50 OTHER SET PUBLISHED: The Price Collection
12/28/2021 3:33:21 AM 43T 1.840 7.667 24.00% 12 50 OTHER SET PUBLISHED: ChicagoWest
12/28/2021 3:33:21 AM 42T 1.840 7.667 24.00% 12 50 OTHER SET PUBLISHED: Poolsharkryan
12/28/2021 3:33:20 AM 41T 1.840 7.667 24.00% 12 50 OTHER SET PUBLISHED: KHolowczak Top 50 Home Run Club
12/28/2021 3:33:20 AM 40T 1.840 7.667 24.00% 12 50 OTHER SET PUBLISHED: JWall
12/28/2021 3:33:19 AM 39T 1.840 7.667 24.00% 12 50 OTHER SET PUBLISHED: JustGoingbyWalmart
12/28/2021 3:33:19 AM 38T 1.840 7.667 24.00% 12 50 OTHER SET PUBLISHED: VideoSportsCardPlus
12/28/2021 3:33:18 AM 37T 1.840 7.667 24.00% 12 50 OTHER SET PUBLISHED: Rspin312
12/28/2021 3:33:18 AM 36T 1.840 7.667 24.00% 12 50 OTHER SET PUBLISHED: Schaeffer Collection
12/28/2021 3:33:17 AM 35T 1.840 7.667 24.00% 12 50 OTHER SET PUBLISHED: rbbono
12/28/2021 3:33:17 AM 34T 1.840 7.667 24.00% 12 50 OTHER SET PUBLISHED: atr107
12/28/2021 3:33:16 AM 33T 1.840 7.667 24.00% 12 50 OTHER SET PUBLISHED: Red Sox Card Nation-Top 50 HR hitters
12/28/2021 3:33:15 AM 32T 1.840 7.667 24.00% 12 50 OTHER SET PUBLISHED: THEHAWK77
12/28/2021 3:33:15 AM 31T 1.840 7.667 24.00% 12 50 OTHER SET PUBLISHED: prf999
12/28/2021 3:33:15 AM 30T 1.840 7.667 24.00% 12 50 OTHER SET PUBLISHED: Peytonwho
12/28/2021 3:33:14 AM 29T 1.840 7.667 24.00% 12 50 OTHER SET PUBLISHED: Farlow126
12/28/2021 3:33:14 AM 28T 1.840 7.667 24.00% 12 50 OTHER SET PUBLISHED: lrtsma
12/28/2021 3:33:13 AM 27T 1.840 7.667 24.00% 12 50 OTHER SET PUBLISHED: neilhamms
12/28/2021 3:33:12 AM 26T 1.840 7.667 24.00% 12 50 OTHER SET PUBLISHED: nickman90
12/28/2021 3:33:12 AM 25T 1.840 7.667 24.00% 12 50 OTHER SET PUBLISHED: MLB Top 50 All-Time HR Hitters
12/28/2021 3:33:10 AM 24T 1.840 7.667 24.00% 12 50 OTHER SET PUBLISHED: crousech
12/28/2021 3:33:09 AM 23T 1.840 7.667 24.00% 12 50 OTHER SET PUBLISHED: Canuck Collector
12/28/2021 3:33:08 AM 22T 1.840 7.667 24.00% 12 50 OTHER SET PUBLISHED: mhibbard
12/28/2021 3:33:06 AM 21T 1.840 7.667 24.00% 12 50 OTHER SET PUBLISHED: chadrader
12/28/2021 3:33:05 AM 20T 1.840 7.667 24.00% 12 50 OTHER SET PUBLISHED: Canned Heat
12/28/2021 3:33:05 AM 19T 1.840 7.667 24.00% 12 50 OTHER SET PUBLISHED: seasonticketholder1999
12/28/2021 3:33:04 AM 18T 1.840 7.667 24.00% 12 50 OTHER SET PUBLISHED: g_neace
12/28/2021 3:33:03 AM 18 1.840 7.667 24.00% 12 50 OTHER SET PUBLISHED: acranger
12/28/2021 3:33:02 AM 17 1.840 7.667 24.00% 12 50 OTHER SET PUBLISHED: [email protected]_UlTimAtE_fInEsT_cOlLeCtIoN
12/28/2021 3:33:01 AM 16 1.840 7.667 24.00% 12 50 OTHER SET PUBLISHED: NFJohn
12/28/2021 3:33:00 AM 15 1.840 7.667 24.00% 12 50 OTHER SET PUBLISHED: ace529
12/28/2021 3:32:58 AM 85T 1.840 7.667 24.00% 12 50 OTHER SET PUBLISHED: markdemonteverde1977
12/28/2021 3:32:49 AM 86T 1.840 7.667 24.00% 12 50 OTHER SET PUBLISHED: ddsdave
12/28/2021 3:32:41 AM 87T 1.840 7.667 24.00% 12 50 OTHER SET PUBLISHED: jonbegos
12/28/2021 3:32:37 AM 88T 1.840 7.667 24.00% 12 50 OTHER SET PUBLISHED: xlite88
12/28/2021 3:32:37 AM 89T 1.840 7.667 24.00% 12 50 OTHER SET PUBLISHED: Chrisdaugherty0
12/28/2021 3:32:36 AM 89T 1.840 7.667 24.00% 12 50 OTHER SET PUBLISHED: mbabramspac
12/28/2021 3:32:27 AM 90T 1.840 7.667 24.00% 12 50 OTHER SET PUBLISHED: guttapercha
12/28/2021 3:32:19 AM 37 1.840 7.667 24.00% 12 50 Composite updated.
12/28/2021 3:31:25 AM 90T 1.840 7.667 24.00% 12 50 OTHER SET PUBLISHED: Hahn's MLB Sluggers
12/28/2021 3:30:22 AM 91T 1.840 7.667 24.00% 12 50 OTHER SET PUBLISHED: Jsteved
12/28/2021 3:29:52 AM 92T 1.840 7.667 24.00% 12 50 OTHER SET PUBLISHED: ckmoore
12/28/2021 3:28:39 AM 93T 1.840 7.667 24.00% 12 50 Composite updated.
12/28/2021 3:28:39 AM 93T 1.840 7.667 24.00% 12 50 OTHER SET PUBLISHED: corbsclinton
12/28/2021 3:28:35 AM 94T 1.840 7.667 24.00% 12 50 OTHER SET PUBLISHED: g_neace
12/28/2021 3:28:33 AM 95 1.840 7.667 24.00% 12 50 OTHER SET PUBLISHED: ace529 (2)
12/19/2021 1:32:48 PM 96 1.840 7.667 24.00% 12 50 Other set un-published.
12/19/2021 1:32:45 PM 96 1.840 7.667 24.00% 12 50 Other set un-published.
12/6/2021 1:53:23 PM 97 1.840 7.667 24.00% 12 50 OTHER SET PUBLISHED: acranger
12/6/2021 11:27:11 AM 96 1.840 7.667 24.00% 12 50 Composite updated.
12/4/2021 9:46:49 AM 97 1.840 7.667 24.00% 12 50 OTHER SET PUBLISHED: A.B.Card.Shop
12/4/2021 9:46:48 AM 97 1.840 7.667 24.00% 12 50 OTHER SET PUBLISHED: A.B.Card.Shop
11/28/2021 3:46:41 AM 98 1.840 7.667 24.00% 12 50 OTHER SET PUBLISHED: jonbegos
11/28/2021 3:46:32 AM 98 1.840 7.667 24.00% 12 50 OTHER SET PUBLISHED: jonbegos
11/19/2021 10:26:59 AM 97 1.840 7.667 24.00% 12 50 OTHER SET PUBLISHED: brassmunkey2
11/19/2021 10:26:40 AM 97 1.840 7.667 24.00% 12 50 OTHER SET PUBLISHED: brassmunkey2
11/2/2021 4:05:52 PM 96 1.840 7.667 24.00% 12 50 OTHER SET PUBLISHED: PNorth (2)
11/2/2021 4:05:48 PM 96 1.840 7.667 24.00% 12 50 OTHER SET PUBLISHED: PNorth (2)
10/24/2021 4:07:17 PM 95 1.840 7.667 24.00% 12 50 OTHER SET PUBLISHED: nickman90
10/24/2021 4:07:17 PM 95 1.840 7.667 24.00% 12 50 OTHER SET PUBLISHED: nickman90
10/18/2021 12:02:40 PM 94 1.840 7.667 24.00% 12 50 Composite updated.
10/14/2021 10:03:24 PM 95 1.840 7.667 24.00% 12 50 OTHER SET PUBLISHED: xlite88
10/14/2021 10:03:13 PM 95 1.840 7.667 24.00% 12 50 OTHER SET PUBLISHED: xlite88
9/20/2021 5:29:02 PM 94 1.840 7.667 24.00% 12 50 OTHER SET PUBLISHED: Rspin312
9/20/2021 5:28:45 PM 94 1.840 7.667 24.00% 12 50 OTHER SET PUBLISHED: Rspin312
9/18/2021 5:51:41 PM 93 1.840 7.667 24.00% 12 50 Other set published.
9/5/2021 8:09:50 AM 92 1.840 7.667 24.00% 12 50 Other set published.
9/3/2021 1:32:18 PM 91 1.840 7.667 24.00% 12 50 Set published.
1 item added.
12 9/3/2021 1:32:04 PM 91 1.840 7.667 24.00% 12 50 Set published.
1 item added.
8/21/2021 9:07:29 AM 99 1.660 7.545 22.00% 11 50 Composite updated.
8/18/2021 5:44:00 PM 100 1.660 7.545 22.00% 11 50 Other set published.
8/17/2021 1:32:22 PM 99 1.660 7.545 22.00% 11 50 Composite updated.
8/16/2021 12:43:42 PM 100 1.660 7.545 22.00% 11 50 Other set un-published.
8/16/2021 12:43:35 PM 100 1.660 7.545 22.00% 11 50 Other set un-published.
8/11/2021 9:29:20 PM 101 1.660 7.545 22.00% 11 50 Other set un-published.
8/11/2021 9:29:17 PM 101 1.660 7.545 22.00% 11 50 Other set un-published.
8/2/2021 6:34:30 PM 102 1.660 7.545 22.00% 11 50 Set published.
1 item added.
11 8/2/2021 6:34:29 PM 102 1.660 7.545 22.00% 11 50 Set published.
1 item added.
8/2/2021 6:34:14 PM 106 1.520 7.600 20.00% 10 50 Set published.
1 item added.
10 8/2/2021 6:34:14 PM 106 1.520 7.600 20.00% 10 50 Set published.
1 item added.
8/2/2021 6:34:07 PM 115 1.340 7.444 18.00% 9 50 Set published.
1 item added.
9 8/2/2021 6:34:07 PM 115 1.340 7.444 18.00% 9 50 Set published.
1 item added.
8/2/2021 6:33:57 PM 120T 1.180 7.375 16.00% 8 50 Set published.
1 item added.
8 8/2/2021 6:33:57 PM 120T 1.180 7.375 16.00% 8 50 Set published.
1 item added.
8/2/2021 6:33:53 PM 128 1.000 7.143 14.00% 7 50 Set published.
1 item added.
7 8/2/2021 6:33:53 PM 128 1.000 7.143 14.00% 7 50 Set published.
1 item added.
8/2/2021 6:33:47 PM 133 0.900 7.500 12.00% 6 50 Set published.
1 item added.
6 8/2/2021 6:33:47 PM 133 0.900 7.500 12.00% 6 50 Set published.
1 item added.
8/2/2021 6:33:37 PM 138 0.780 7.800 10.00% 5 50 Set published.
1 item added.
5 8/2/2021 6:33:37 PM 138 0.780 7.800 10.00% 5 50 Set published.
1 item added.
8/2/2021 6:33:32 PM 144 0.680 8.500 8.00% 4 50 Set published.
1 item added.
4 8/2/2021 6:33:31 PM 144 0.680 8.500 8.00% 4 50 Set published.
1 item added.
8/2/2021 6:33:24 PM 153T 0.500 8.333 6.00% 3 50 Set published.
1 item added.
3 8/2/2021 6:33:24 PM 153T 0.500 8.333 6.00% 3 50 Set published.
1 item added.
8/2/2021 6:33:16 PM 160T 0.380 9.500 4.00% 2 50 Set published.
1 item added.
2 8/2/2021 6:33:15 PM 160T 0.380 9.500 4.00% 2 50 Set published.
1 item added.
8/2/2021 6:33:08 PM 179T 0.180 9.000 2.00% 1 50 Set published.
1 item added.